Hourly Data Report for May 27, 2021

OTTAWA INTL A
ONTARIO
Current Station Operator: NAVCAN

45°19'00.000" N
75°40'00.000" W
114.90 m
6106001
71628
YOW

Download Data

Hourly Data (May 2021)
Hourly Data Report for May 27, 2021
TIME
LST
Temp Definition
°C
Dew Point Definition
°C
Rel Hum Definition
%
Precip. Amount Definition
mm

Wind Dir Definition
10's deg

Wind Spd Definition
km/h
Visibility Definition
km
Stn Press Definition
kPa
Hmdx Definition


Wind Chill Definition


Weather Definition


00:00 16.8 8.7 58   33 26 24.1 99.71     LegendNANA
01:00 14.7 7.7 62   34 33 24.1 99.84     Mostly Cloudy
02:00 12.4 5.0 61   33 36 24.1 99.97     LegendNANA
03:00 10.2 3.3 62   32 26 24.1 100.10     LegendNANA
04:00 8.9 1.9 61   33 23 24.1 100.25     Mainly Clear
05:00 7.5 -0.9 55   36 27 24.1 100.33     LegendNANA
06:00 7.5 -2.4 49   35 31 24.1 100.41     LegendNANA
07:00 8.5 -2.0 48   34 27 24.1 100.51     Mainly Clear
08:00 8.3 -0.6 53   31 19 24.1 100.59     LegendNANA
09:00 9.5 -1.0 48   33 21 24.1 100.63     LegendNANA
10:00 10.7 -1.2 43   33 21 24.1 100.68     Mainly Clear
11:00 11.7 -0.6 42   33 17 24.1 100.62     LegendNANA
12:00 12.6 -1.8 36   34 26 24.1 100.64     LegendNANA
13:00 12.8 -0.2 41   34 24 24.1 100.61     Mostly Cloudy
14:00 12.3 -0.9 40   33 18 24.1 100.63     LegendNANA
15:00 12.1 -1.9 38   36 15 24.1 100.60     LegendNANA
16:00 13.7 -2.3 33   29 26 24.1 100.61     Mainly Clear
17:00 11.9 -2.5 36   33 23 24.1 100.65     LegendNANA
18:00 11.4 -2.5 38   36 21 24.1 100.64     LegendNANA
19:00 10.2 -2.4 41   1 15 24.1 100.70     Mainly Clear
20:00 8.9 -3.0 43   36 23 24.1 100.74     LegendNANA
21:00 7.7 -3.0 47   1 20 24.1 100.85     LegendNANA
22:00 6.6 -2.6 52   1 13 24.1 100.89     Mainly Clear
23:00 5.7 -3.2 53   1 18 24.1 100.90     LegendNANA

Notes on Data Quality.

Legend

  • E = Estimated
  • M = Missing
  • NA = Not Available*
  • [empty] = Indicates an unobserved value
Date modified: